Location: Bratislava
(48.1500°N, 17.1170°E)
Time: 22:34:46
(UTC+02:00)

Envisat - Visible Passes

Search period start: 20 July 2018 00:00
Search period end: 30 July 2018 00:00
Orbit: 764 x 766 km, 98.2° (Epoch: 20 July)

Date Brightness Start Highest point End Pass type
(mag) Time Alt. Az. Time Alt. Az. Time Alt. Az.
21 Jul 5.8 21:34:49 10° WSW 21:37:11 13° W 21:39:34 10° WNW visible
24 Jul 5.7 21:22:42 10° SW 21:25:52 16° W 21:29:02 10° NW visible
27 Jul 5.6 21:10:51 10° SW 21:14:34 20° W 21:18:19 10° NW visible
29 Jul 5.9 21:38:34 10° WSW 21:40:29 12° W 21:42:24 10° WNW visible
